www.pogodaiklimat.ru

Погода и климат >> Архив погоды >> Аргентина >> Чамикаль


ПОГОДА в Чамикале

  • Прогноз погоды в Чамикале
  • Монитор погоды в Чамикале

АРХИВ ПОГОДЫ в Чамикале

Время (UTC), дата Ветер
(напр.,м/с)
 
Видим.   Явления Облачность Т
(С)
Тd
(С)
f
(%)
Тe
(С)
Тes
(С)
Комфортность P
(гПа)
Po
(гПа)
Тmin
(С)
Tmax
(С)
R
(мм)
R24
(мм)
S
(см)
09 16.02 ЮВ 1 20 км ясно +19.6 +15.5 77 +23 +23 комфорт 1013.8 962.2
12 16.02 ЮВ 2 20 км 3/1 1200 м
[Cu hum Ac und]
+22.0 +15.7 67 +26 +29 душно 1015.4 963.3 +18.9 +26.6
15 16.02 В 5 20 км ясно +25.9 +16.3 55 +29 +38 душно 1016.5 962.5
18 16.02 В 5 20 км ясно +31.2 +15.1 38 +34 +42 душно 959.3
21 16.02 В 5 20 км ясно +31.4 +13.7 34 +33 +35 жарко 1008.8 957.3
00 17.02 штиль 0 20 км ясно +27.0 +10.9 37 +28 +28 жарко 1010.2 958.5 +21.9 +31.6
09 17.02 штиль 0 20 км ясно +19.6 +16.0 80 +22 +22 комфорт 1010.9 959.3
12 17.02 ЮВ 2 20 км ясно +22.6 +16.6 69 +27 +32 душно 1012.0 960.2 +18.7 +27.0
15 17.02 СВ 1 20 км 1/1 1050 м
[Cu hum]
+27.8 +16.6 51 +31 +50 душно 959.0
18 17.02 СВ 5 20 км ясно +32.6 +13.3 31 +34 +42 очень
жарко
955.9
21 17.02 СВ 5 20 км ясно +32.8 +13.1 30 +33 +35 жарко 1004.8 953.6
00 18.02 В 2 20 км ясно +28.2 +15.5 46 +31 +31 душно 1005.8 954.5 +22.6 +34.2
09 18.02 ЮВ 1 15 км дымка ясно +21.7 +17.8 78 +26 +26 душно 1005.5 954.5
12 18.02 Ю 4 20 км 1/1 1050 м
[Cu hum]
+23.7 +18.3 72 +28 +31 душно 1007.2 955.8 +21.2 +28.2
15 18.02 В 4 20 км 3/3 1200 м
[Cu hum]
+28.9 +18.6 54 +34 +42 очень
душно
955.9
18 18.02 ЮВ 2 20 км 3/3 1200 м
[Cb calv]
+33.4 +17.7 39 +37 +49 очень
душно
953.5
21 18.02 В 3 20 км 1/1 1200 м
[Cb calv Ci fib]
+34.0 +17.4 37 +37 +40 очень
душно
1002.8 952.0
00 19.02 штиль 0 20 км 1/0
[Ac trans]
+29.8 +18.0 49 +34 +34 очень
душно
1004.7 953.6 +23.7 +34.6
09 19.02 штиль 0 20 км 4/0
[Ac trans Ci fib]
+22.4 +17.7 75 +27 +27 душно 1006.3 955.4
12 19.02 штиль 0 20 км ясно +26.0 +17.7 60 +30 +36 душно 1007.3 956.2 +21.5 +29.8
15 19.02 штиль 0 20 км 3/3 1200 м
[Cu hum]
+32.2 +19.1 46 +38 +54 опасность
солнечного
удара
956.0
18 19.02 ЮВ 3 20 км 5/5 1200 м
[Cu hum]
+36.6 +17.8 33 +40 +48 очень
душно
954.1
21 19.02 В 3 20 км 4/4 1200 м
[Cu hum]
+35.6 +17.6 35 +39 +41 очень
душно
1002.2 951.6
00 20.02 штиль 0 20 км ясно +31.0 +16.1 41 +34 +34 душно 1002.8 952.1 +25.9 +37.0
09 20.02 штиль 0 20 км ясно +24.1 +17.4 66 +28 +28 душно 1005.6 955.0
12 20.02 ЮВ 1 20 км ясно +26.8 +18.6 61 +32 +37 очень
душно
1006.4 955.7 +23.9 +31.0
15 20.02 СВ 4 20 км ясно +32.2 +19.0 46 +38 +49 очень
душно
954.5
18 20.02 СВ 5 20 км ясно +38.0 +17.0 29 +41 +49 опасность
перегрева
951.6
21 20.02 СВ 5 20 км ясно +38.4 +14.1 24 +39 +41 очень
душно
998.8 948.8
09 21.02 ЮВ 4 15 км дымка ясно +25.8 +19.3 67 +31 +31 очень
душно
1002.7 952.6
12 21.02 ЮВ 3 20 км ясно +27.2 +19.6 63 +33 +36 очень
душно
1004.7 954.2 +25.0 +33.5
15 21.02 ЮВ 3 20 км ясно +32.4 +19.6 47 +38 +52 опасность
солнечного
удара
954.5
18 21.02 В 5 15 км мгла 1/1 1200 м
[Cu med, cong]
+38.2 +18.7 32 +42 +50 опасность
перегрева
952.1
21 21.02 СВ 6 15 км пыльный позёмок 1/1 1200 м
[Cu hum]
+39.0 +17.0 28 +42 +43 опасность
перегрева
1000.2 950.2
00 22.02 ЮВ 1 15 км пыль ясно +33.6 +16.4 36 +36 +36 очень
душно
1002.3 952.0 +27.2 +40.0
09 22.02 штиль 0 20 км ясно +25.2 +17.8 64 +30 +30 душно 1002.7 952.6
12 22.02 В 4 20 км ясно +27.8 +18.0 55 +32 +35 душно 1005.1 954.6 +25.1 +33.8
15 22.02 В 2 15 км мгла ясно +32.8 +19.9 47 +39 +57 опасность
солнечного
удара
953.4
18 22.02 ЮВ 3 15 км мгла 3/3 1200 м
[Cu hum]
+36.8 +19.6 37 +42 +53 опасность
перегрева
953.0
21 22.02 штиль 0 15 км мгла 3/3 1200 м
[Cu hum]
+38.6 +20.2 35 +45 +48 опасность
перегрева
1000.8 950.8
00 23.02 штиль 0 20 км 3/3 1200 м
[Cu hum]
+34.8 +20.3 43 +41 +41 опасность
перегрева
1002.3 952.1 +27.5 +39.2

 

Местоположение метеостанции Чамикаль (Аргентина): широта -30.36 долгота -66.28 высота над уровнем моря 461 м.

В архиве по умолчанию представлена погода в Чамикале за последнюю неделю. Архивные данные за месяц целиком и за предыдущие месяцы, начиная с января 2011 года, Вы можете получить, выбрав интересующий диапазон дат из раскрывающегося списка и нажав кнопку "Ввод!".


*Определитесь, кто Вы:
робот инопланетянин человек

Внимание! Время в таблицах - всемирное. Для получения местного времени необходимо прибавить поправку, которая равна -3 ч.

Смотрите также архив погоды в соседних городах и на ближайших метеорологических станциях:

Погода в Ла-Риохе (Аргентина) (120 км)
Погода в Сан-Фернандо-дель-Валье-де-Катамарке (Аргентина) (202 км)
Погода в Вилла Долорес (Аргентина) (208 км)
Погода в Кордове (Аргентина) (224 км)
Погода в Сан-Хуане (Аргентина) (234 км)
Погода в Вилла де Мария дель Рио Секо (Аргентина) (255 км)
Погода в Пиларе (Аргентина) (271 км)
Погода в Сан-Луисе (Аргентина) (323 км)
Погода в Сантьяго-дель-Эстеро (Аргентина) (347 км)
Погода в Рио-Куарто (Аргентина) (358 км)

Пояснения к столбцам:

Ветер - указаны скорость ветра в м/с - средняя за 10 мин, порывы в срок и между сроками (в фигурных скобках) и направление, откуда дует ветер: С - северный, СВ - северо-восточный, В - восточный, ЮВ - юго-восточный, Ю - южный, ЮЗ - юго-западный, З - западный, СЗ - северо-западный.
Видимость - горизонтальная дальность видимости в метрах или километрах. При видимости от 1 до 10 км при отсутствии осадков обычно наблюдается дымка, при ухудшении видимости до 1 км и менее - туман. В сухую погоду видимость может ухудшаться дымом, пылью или мглою.
Явления - указаны атмосферные явления, наблюдавшиеся в срок или в последний час перед сроком; фигурными скобками обозначены явления, наблюдавшиеся между сроками (за 1-3 часа до срока); квадратными скобками обозначены град или гололедные отложения с указанием их диаметра в мм.
Облачность - указаны через наклонную черту общая и нижняя облачность в баллах и высота нижней границы облаков в метрах; квадратными скобками обозначены формы облаков: Ci - перистые, Cs - перисто-слоистые, Cc - перисто-кучевые, Ac - высококучевые, As - высокослоистые, Sc - слоисто-кучевые, Ns - слоисто-дождевые, Cu - кучевые, Cb - кучево-дождевые. Подробнее классификацию облаков см. в Атласе облаков (PDF).
T - Температура воздуха - температура, измеренная на высоте 2 м над землей.
Td - Температура точки росы - температура, при понижении до которой содержащийся в воздухе водяной пар достигнет насыщения.
f - Относительная влажность воздуха - влажноcть воздуха, измеренная на высоте 2 м над землей.
Te - Эффективная температура - температура, которую ощущает одетый по сезону человек в тени. Характеристика душности погоды. При расчете учитывается влияние влажности воздуха и скорости ветра на теплоощущения человека.
Tes - Эффективная температура на солнце - температура, которую ощущает человек, с поправкой на солнечный нагрев. Характеристика знойности погоды. Зависит от высоты солнца над горизонтом, облачности и скорости ветра. Ночью, в пасмурную погоду, а также при ветре 12 м/с и более поправка равна нулю.
P - Атмосферное давление - приведенное к уровню моря атмосферное давление.
Po - Атмосферное давление - измеренное на уровне метеостанции атмосферное давление.
Tmin - Минимальная температура - минимум температуры воздуха на высоте 2 м над землей.
Tmax - Максимальная температура - максимум температуры воздуха на высоте 2 м над землей.
R - Количество осадков - Количество выпавших осадков за период времени, мм. При наведении курсора мыши на число - период времени, за который выпало указанное количество осадков.
R24 - Количество осадков - Количество выпавших осадков за 24 часа, мм.
S - Снежный покров - Высота снежного покрова, см. При наведении курсора мыши на число - состояние снежного покрова и степень покрытия местности в баллах.